Total_Precipitation_Accumulation
0.10 0.19 0.52 0.61 0.58 0.54 0.58 0.61 0.61 0.53 0.52 0.57 0.60 0.63 0.63 0.61 0.61 0.59 0.56 0.58 0.64 0.65 0.69 0.77 0.79 0.79 0.68 0.55 0.47 0.42 0.38 0.38 0.40 0.42 0.45 0.50 0.50 0.49 0.46 0.40 0.36 0.42 0.57
0.11 0.18 0.44 0.53 0.55 0.56 0.61 0.62 0.61 0.51 0.48 0.52 0.58 0.63 0.61 0.60 0.60 0.61 0.62 0.65 0.69 0.70 0.73 0.74 0.69 0.66 0.62 0.52 0.45 0.39 0.36 0.33 0.28 0.27 0.28 0.32 0.43 0.53 0.50 0.45 0.45 0.55 0.57
0.09 0.16 0.34 0.49 0.54 0.56 0.60 0.59 0.59 0.50 0.44 0.47 0.56 0.64 0.63 0.61 0.59 0.62 0.64 0.68 0.72 0.75 0.75 0.70 0.66 0.63 0.53 0.48 0.45 0.39 0.37 0.31 0.23 0.18 0.18 0.23 0.40 0.57 0.53 0.51 0.51 0.57 0.58
0.07 0.13 0.24 0.42 0.53 0.59 0.60 0.59 0.56 0.50 0.50 0.50 0.56 0.63 0.66 0.63 0.58 0.61 0.64 0.66 0.71 0.72 0.73 0.70 0.65 0.64 0.54 0.47 0.43 0.40 0.39 0.33 0.23 0.15 0.10 0.19 0.42 0.68 0.68 0.65 0.61 0.60 0.60
0.09 0.13 0.25 0.44 0.56 0.63 0.64 0.64 0.61 0.57 0.57 0.59 0.61 0.66 0.68 0.70 0.66 0.63 0.58 0.60 0.68 0.68 0.68 0.69 0.65 0.63 0.57 0.50 0.44 0.43 0.45 0.39 0.24 0.13 0.08 0.14 0.39 0.76 0.79 0.72 0.65 0.62 0.59
0.10 0.16 0.28 0.47 0.60 0.66 0.67 0.70 0.63 0.63 0.64 0.64 0.67 0.74 0.76 0.74 0.71 0.67 0.61 0.58 0.57 0.60 0.64 0.67 0.67 0.67 0.63 0.54 0.50 0.52 0.54 0.48 0.24 0.10 0.09 0.15 0.38 0.77 0.83 0.73 0.65 0.61 0.60
0.13 0.18 0.31 0.50 0.65 0.70 0.73 0.76 0.72 0.71 0.73 0.71 0.71 0.79 0.86 0.81 0.78 0.72 0.64 0.57 0.50 0.51 0.55 0.60 0.61 0.62 0.63 0.57 0.56 0.59 0.64 0.49 0.22 0.15 0.14 0.16 0.37 0.85 1.01 0.86 0.73 0.65 0.64
0.16 0.24 0.38 0.60 0.71 0.79 0.83 0.86 0.82 0.83 0.87 0.85 0.84 0.84 0.89 0.90 0.81 0.73 0.67 0.61 0.54 0.52 0.55 0.57 0.58 0.61 0.63 0.61 0.59 0.62 0.62 0.41 0.20 0.19 0.19 0.23 0.46 0.97 1.16 1.11 0.90 0.71 0.65
0.23 0.29 0.41 0.56 0.70 0.86 0.95 0.96 0.92 0.91 0.93 0.92 0.91 0.90 0.90 0.94 0.94 0.88 0.79 0.70 0.63 0.61 0.59 0.55 0.53 0.52 0.53 0.57 0.59 0.55 0.49 0.36 0.20 0.25 0.24 0.33 0.47 0.95 1.15 1.20 1.08 0.87 0.73
0.34 0.38 0.47 0.59 0.70 0.80 0.90 0.97 0.95 0.92 0.95 0.97 0.98 0.97 0.97 0.97 0.98 0.97 0.86 0.75 0.69 0.66 0.59 0.54 0.51 0.47 0.43 0.42 0.43 0.41 0.33 0.28 0.20 0.26 0.39 0.39 0.48 0.98 1.19 1.22 1.12 1.02 0.90
0.47 0.49 0.54 0.69 0.77 0.82 0.87 0.87 0.97 1.02 1.04 1.03 1.02 0.98 0.97 0.95 0.90 0.84 0.77 0.75 0.75 0.73 0.66 0.60 0.57 0.51 0.43 0.35 0.32 0.29 0.24 0.19 0.21 0.32 0.37 0.39 0.60 1.06 1.24 1.23 1.15 1.07 1.04
0.46 0.51 0.58 0.71 0.77 0.84 0.86 0.96 1.09 1.07 1.06 1.04 0.97 0.98 0.94 0.89 0.86 0.79 0.79 0.81 0.78 0.77 0.77 0.73 0.67 0.59 0.47 0.35 0.34 0.34 0.22 0.16 0.17 0.19 0.21 0.29 0.62 1.09 1.27 1.22 1.21 1.19 1.17
0.46 0.54 0.61 0.71 0.83 0.90 0.92 0.95 1.05 1.05 1.07 1.08 1.06 1.03 1.02 1.00 0.97 0.92 0.87 0.90 0.85 0.78 0.78 0.78 0.74 0.61 0.54 0.48 0.44 0.38 0.27 0.22 0.18 0.15 0.14 0.21 0.40 0.70 1.04 1.18 1.24 1.28 1.30
0.57 0.63 0.68 0.79 0.90 0.96 1.01 1.00 0.99 1.02 1.04 1.02 1.06 1.05 1.05 1.02 0.97 0.92 0.87 0.84 0.82 0.82 0.81 0.79 0.78 0.68 0.60 0.51 0.47 0.39 0.32 0.28 0.22 0.19 0.16 0.18 0.26 0.39 0.64 0.90 1.08 1.23 1.34
0.64 0.71 0.79 0.90 0.96 1.00 1.07 1.12 1.09 1.03 1.02 0.99 0.97 1.00 1.00 0.99 0.93 0.84 0.78 0.76 0.76 0.77 0.76 0.71 0.67 0.62 0.55 0.52 0.48 0.42 0.38 0.34 0.31 0.27 0.22 0.21 0.21 0.26 0.40 0.62 0.88 1.12 1.32
0.69 0.77 0.88 0.99 1.08 1.11 1.11 1.10 1.12 1.10 1.05 1.03 0.98 0.92 0.91 0.94 0.93 0.86 0.78 0.77 0.73 0.73 0.75 0.73 0.69 0.63 0.54 0.48 0.43 0.41 0.40 0.38 0.36 0.33 0.29 0.28 0.26 0.27 0.35 0.49 0.69 1.00 1.26
0.77 0.91 1.05 1.12 1.19 1.25 1.25 1.20 1.17 1.17 1.15 1.06 1.02 1.00 0.93 0.90 0.89 0.90 0.86 0.79 0.72 0.68 0.69 0.72 0.74 0.75 0.68 0.58 0.50 0.44 0.41 0.38 0.36 0.33 0.32 0.33 0.32 0.32 0.34 0.43 0.53 0.75 1.08
0.90 1.02 1.14 1.26 1.28 1.28 1.33 1.34 1.32 1.25 1.20 1.16 1.07 1.07 1.04 0.97 0.93 0.94 0.92 0.85 0.78 0.74 0.70 0.67 0.67 0.70 0.70 0.66 0.60 0.56 0.49 0.44 0.37 0.33 0.30 0.30 0.35 0.36 0.36 0.39 0.46 0.58 0.87
0.88 0.97 1.13 1.28 1.34 1.29 1.37 1.41 1.45 1.41 1.31 1.25 1.16 1.10 1.06 1.02 0.96 0.96 0.95 0.91 0.86 0.84 0.79 0.75 0.69 0.63 0.61 0.60 0.57 0.55 0.51 0.49 0.48 0.46 0.39 0.32 0.30 0.35 0.40 0.41 0.45 0.48 0.65
0.92 1.04 1.13 1.31 1.36 1.41 1.45 1.52 1.51 1.48 1.41 1.33 1.23 1.10 1.06 1.04 1.01 0.95 0.94 0.92 0.92 0.89 0.84 0.79 0.75 0.67 0.60 0.57 0.58 0.57 0.51 0.46 0.44 0.42 0.42 0.38 0.33 0.32 0.39 0.45 0.47 0.43 0.46
0.90 1.01 1.10 1.27 1.30 1.43 1.53 1.48 1.44 1.35 1.32 1.31 1.23 1.17 1.11 1.12 1.09 1.02 0.97 0.95 0.94 0.91 0.82 0.77 0.76 0.75 0.72 0.68 0.71 0.68 0.59 0.51 0.47 0.45 0.43 0.41 0.37 0.33 0.35 0.44 0.51 0.47 0.41
0.78 0.88 0.97 1.19 1.32 1.39 1.46 1.41 1.36 1.34 1.29 1.28 1.22 1.22 1.23 1.21 1.18 1.10 1.00 0.99 0.96 0.92 0.87 0.80 0.76 0.77 0.74 0.74 0.77 0.81 0.72 0.64 0.53 0.43 0.42 0.40 0.36 0.36 0.38 0.39 0.48 0.53 0.50
0.71 0.77 0.89 1.13 1.30 1.42 1.49 1.58 1.58 1.60 1.57 1.49 1.36 1.26 1.24 1.25 1.20 1.17 1.08 1.00 0.99 0.98 0.92 0.83 0.77 0.76 0.74 0.67 0.66 0.86 0.90 0.68 0.48 0.40 0.39 0.39 0.38 0.38 0.37 0.38 0.43 0.49 0.55
0.66 0.73 0.85 1.14 1.36 1.44 1.50 1.55 1.58 1.57 1.56 1.48 1.39 1.34 1.26 1.20 1.18 1.15 1.15 1.09 1.01 0.97 0.91 0.86 0.80 0.76 0.77 0.75 0.68 0.66 0.71 0.69 0.68 0.51 0.36 0.35 0.37 0.40 0.40 0.40 0.41 0.46 0.52
0.71 0.74 0.82 1.01 1.25 1.42 1.51 1.51 1.51 1.52 1.48 1.50 1.54 1.52 1.47 1.38 1.28 1.22 1.18 1.19 1.13 1.02 0.93 0.90 0.87 0.84 0.83 0.81 0.75 0.67 0.62 0.56 0.58 0.67 0.49 0.35 0.37 0.37 0.40 0.44 0.46 0.49 0.52
0.81 0.83 0.86 0.93 1.11 1.32 1.45 1.44 1.40 1.42 1.44 1.45 1.53 1.56 1.53 1.44 1.33 1.21 1.17 1.14 1.11 1.04 0.93 0.89 0.90 0.91 0.90 0.84 0.77 0.72 0.72 0.70 0.61 0.66 0.61 0.43 0.41 0.39 0.40 0.46 0.51 0.54 0.55